Time,TemperatureF,DewpointF,PressureIn,WindDirection,WindDirectionDegrees,WindSpeedMPH,WindSpeedGustMPH,Humidity,HourlyPrecipIn,Conditions,Clouds,dailyrainin,SoftwareType,DateUTC
2013-07-08 00:04:00,70.7,64.6,30.00,N/A,-737280,0.0,-999.0,81,0.00,,,0.00,Wunderground v.1.15,2013-07-08 05:04:00,
2013-07-08 00:09:00,70.6,64.5,30.00,N/A,-737280,0.0,-999.0,81,0.00,,,0.00,Wunderground v.1.15,2013-07-08 05:09:00,
2013-07-08 00:14:00,70.6,64.5,29.99,N/A,-737280,0.0,-999.0,81,0.00,,,0.00,Wunderground v.1.15,2013-07-08 05:14:00,
2013-07-08 00:19:00,70.7,64.6,29.99,N/A,-737280,0.0,-999.0,81,0.00,,,0.00,Wunderground v.1.15,2013-07-08 05:19:00,
2013-07-08 00:24:00,70.8,64.7,29.99,N/A,-737280,0.0,-999.0,81,0.00,,,0.00,Wunderground v.1.15,2013-07-08 05:24:00,
2013-07-08 00:29:00,70.6,64.5,29.99,N/A,-737280,0.0,-999.0,81,0.00,,,0.00,Wunderground v.1.15,2013-07-08 05:29:00,
2013-07-08 00:34:00,70.6,64.5,29.99,N/A,-737280,0.0,-999.0,81,0.00,,,0.00,Wunderground v.1.15,2013-07-08 05:34:00,
2013-07-08 00:39:00,70.6,64.5,29.99,N/A,-737280,0.0,-999.0,81,0.00,,,0.00,Wunderground v.1.15,2013-07-08 05:39:00,
2013-07-08 00:44:00,70.6,64.8,29.99,N/A,-737280,0.0,-999.0,82,0.00,,,0.00,Wunderground v.1.15,2013-07-08 05:44:00,
2013-07-08 00:49:00,70.6,64.8,29.99,N/A,-737280,0.0,-999.0,82,0.00,,,0.00,Wunderground v.1.15,2013-07-08 05:49:00,
2013-07-08 00:54:00,70.7,64.9,29.99,N/A,-737280,0.0,-999.0,82,0.00,,,0.00,Wunderground v.1.15,2013-07-08 05:54:00,
2013-07-08 00:59:00,70.8,65.0,29.99,N/A,-737280,0.0,-999.0,82,0.00,,,0.00,Wunderground v.1.15,2013-07-08 05:59:00,
2013-07-08 01:04:00,70.8,64.7,29.99,SE,135,0.0,-999.0,81,0.00,,,0.00,Wunderground v.1.15,2013-07-08 06:04:00,
2013-07-08 01:09:00,71.0,64.9,29.99,N/A,-737280,0.0,-999.0,81,0.00,,,0.00,Wunderground v.1.15,2013-07-08 06:09:00,
2013-07-08 01:14:00,71.2,64.7,29.98,SE,135,0.0,-999.0,80,0.00,,,0.00,Wunderground v.1.15,2013-07-08 06:14:00,
2013-07-08 01:19:00,71.5,65.0,29.98,N/A,-737280,0.0,-999.0,80,0.00,,,0.00,Wunderground v.1.15,2013-07-08 06:19:00,
2013-07-08 01:24:00,71.6,65.1,29.98,N/A,-737280,0.0,-999.0,80,0.00,,,0.00,Wunderground v.1.15,2013-07-08 06:24:00,
2013-07-08 01:29:00,71.6,65.1,29.99,N/A,-737280,0.0,-999.0,80,0.00,,,0.00,Wunderground v.1.15,2013-07-08 06:29:00,
2013-07-08 01:34:00,71.6,65.1,29.99,N/A,-737280,0.0,-999.0,80,0.00,,,0.00,Wunderground v.1.15,2013-07-08 06:34:00,
2013-07-08 01:39:00,71.5,65.0,29.99,N/A,-737280,0.0,-999.0,80,0.00,,,0.00,Wunderground v.1.15,2013-07-08 06:39:00,
2013-07-08 01:44:00,71.3,64.8,29.99,N/A,-737280,0.0,-999.0,80,0.00,,,0.00,Wunderground v.1.15,2013-07-08 06:44:00,
2013-07-08 01:49:00,71.1,64.6,29.99,N/A,-737280,0.0,-999.0,80,0.00,,,0.00,Wunderground v.1.15,2013-07-08 06:49:00,
2013-07-08 01:54:00,70.9,64.4,29.99,N/A,-737280,0.0,-999.0,80,0.00,,,0.00,Wunderground v.1.15,2013-07-08 06:54:00,
2013-07-08 01:59:00,70.8,64.7,29.98,N/A,-737280,0.0,-999.0,81,0.00,,,0.00,Wunderground v.1.15,2013-07-08 06:59:00,
2013-07-08 02:04:00,70.6,64.5,29.98,N/A,-737280,0.0,-999.0,81,0.00,,,0.00,Wunderground v.1.15,2013-07-08 07:04:00,
2013-07-08 02:09:00,70.4,64.6,29.98,N/A,-737280,0.0,-999.0,82,0.00,,,0.00,Wunderground v.1.15,2013-07-08 07:09:00,
2013-07-08 02:14:00,70.4,65.0,29.99,SE,135,0.0,-999.0,83,0.00,,,0.00,Wunderground v.1.15,2013-07-08 07:14:00,
2013-07-08 02:19:00,70.3,64.9,29.99,N/A,-737280,0.0,-999.0,83,0.00,,,0.00,Wunderground v.1.15,2013-07-08 07:19:00,
2013-07-08 02:24:00,70.4,65.0,29.99,N/A,-737280,0.0,-999.0,83,0.00,,,0.00,Wunderground v.1.15,2013-07-08 07:24:00,
2013-07-08 02:29:00,70.6,64.8,29.99,SE,135,0.0,-999.0,82,0.00,,,0.00,Wunderground v.1.15,2013-07-08 07:29:00,
2013-07-08 02:34:00,70.9,64.8,29.99,SE,135,0.0,-999.0,81,0.00,,,0.00,Wunderground v.1.15,2013-07-08 07:34:00,
2013-07-08 02:39:00,71.2,64.7,29.99,SE,135,0.0,-999.0,80,0.00,,,0.00,Wunderground v.1.15,2013-07-08 07:39:00,
2013-07-08 02:44:00,71.5,64.6,29.98,SE,135,0.0,-999.0,79,0.00,,,0.00,Wunderground v.1.15,2013-07-08 07:44:00,
2013-07-08 02:49:00,71.7,64.8,29.98,SE,135,0.0,-999.0,79,0.00,,,0.00,Wunderground v.1.15,2013-07-08 07:49:00,
2013-07-08 02:54:00,71.9,64.7,29.98,ESE,113,0.0,-999.0,78,0.00,,,0.00,Wunderground v.1.15,2013-07-08 07:54:00,
2013-07-08 02:59:00,72.0,64.8,29.99,ESE,113,0.0,-999.0,78,0.00,,,0.00,Wunderground v.1.15,2013-07-08 07:59:00,
2013-07-08 03:04:00,72.1,64.9,29.99,ESE,113,0.0,-999.0,78,0.00,,,0.00,Wunderground v.1.15,2013-07-08 08:04:00,
2013-07-08 03:09:00,72.1,64.5,29.99,ESE,113,0.0,-999.0,77,0.00,,,0.00,Wunderground v.1.15,2013-07-08 08:09:00,
2013-07-08 03:14:00,72.1,64.9,29.99,SSW,203,0.0,-999.0,78,0.00,,,0.00,Wunderground v.1.15,2013-07-08 08:14:00,
2013-07-08 03:19:00,72.0,65.1,29.99,SSW,203,0.0,-999.0,79,0.00,,,0.00,Wunderground v.1.15,2013-07-08 08:19:00,
2013-07-08 03:24:00,71.9,65.0,29.99,N/A,-737280,0.0,-999.0,79,0.00,,,0.00,Wunderground v.1.15,2013-07-08 08:24:00,
2013-07-08 03:29:00,71.8,64.9,30.00,N/A,-737280,0.0,-999.0,79,0.00,,,0.00,Wunderground v.1.15,2013-07-08 08:29:00,
2013-07-08 03:34:00,71.6,65.1,30.00,SSW,203,0.0,-999.0,80,0.00,,,0.00,Wunderground v.1.15,2013-07-08 08:34:00,
2013-07-08 03:39:00,71.5,65.0,30.00,N/A,-737280,0.0,-999.0,80,0.00,,,0.00,Wunderground v.1.15,2013-07-08 08:39:00,
2013-07-08 03:44:00,71.3,64.8,30.00,N/A,-737280,0.0,-999.0,80,0.00,,,0.00,Wunderground v.1.15,2013-07-08 08:44:00,
2013-07-08 03:49:00,71.1,65.0,30.00,SSW,203,0.0,-999.0,81,0.00,,,0.00,Wunderground v.1.15,2013-07-08 08:49:00,
2013-07-08 03:54:00,71.1,65.0,30.00,N/A,-737280,0.0,-999.0,81,0.00,,,0.00,Wunderground v.1.15,2013-07-08 08:54:00,
2013-07-08 03:59:00,70.9,64.8,29.99,SSW,203,0.0,-999.0,81,0.00,,,0.00,Wunderground v.1.15,2013-07-08 08:59:00,
2013-07-08 04:04:00,70.9,64.8,29.99,N/A,-737280,0.0,-999.0,81,0.00,,,0.00,Wunderground v.1.15,2013-07-08 09:04:00,
2013-07-08 04:09:00,70.9,64.8,29.99,ESE,113,0.0,-999.0,81,0.00,,,0.00,Wunderground v.1.15,2013-07-08 09:09:00,
2013-07-08 04:14:00,70.9,64.8,30.00,ESE,113,0.0,-999.0,81,0.00,,,0.00,Wunderground v.1.15,2013-07-08 09:14:00,
2013-07-08 04:19:00,70.9,64.8,30.00,ESE,113,0.0,-999.0,81,0.00,,,0.00,Wunderground v.1.15,2013-07-08 09:19:00,
2013-07-08 04:24:00,70.9,65.1,30.00,N/A,-737280,0.0,-999.0,82,0.00,,,0.00,Wunderground v.1.15,2013-07-08 09:24:00,
2013-07-08 04:29:00,70.9,65.1,30.00,N/A,-737280,0.0,-999.0,82,0.00,,,0.00,Wunderground v.1.15,2013-07-08 09:29:00,
2013-07-08 04:34:00,70.8,65.0,30.00,N/A,-737280,0.0,-999.0,82,0.00,,,0.00,Wunderground v.1.15,2013-07-08 09:34:00,
2013-07-08 04:39:00,70.5,64.7,30.00,N/A,-737280,0.0,-999.0,82,0.00,,,0.00,Wunderground v.1.15,2013-07-08 09:39:00,
2013-07-08 04:44:00,70.3,64.9,30.00,N/A,-737280,0.0,-999.0,83,0.00,,,0.00,Wunderground v.1.15,2013-07-08 09:44:00,
2013-07-08 04:49:00,70.1,64.7,30.00,N/A,-737280,0.0,-999.0,83,0.00,,,0.00,Wunderground v.1.15,2013-07-08 09:49:00,
2013-07-08 04:54:00,69.8,64.7,30.00,N/A,-737280,0.0,-999.0,84,0.00,,,0.00,Wunderground v.1.15,2013-07-08 09:54:00,
2013-07-08 04:59:00,69.8,65.1,30.00,N/A,-737280,0.0,-999.0,85,0.00,,,0.00,Wunderground v.1.15,2013-07-08 09:59:00,
2013-07-08 05:04:00,69.6,65.2,30.00,ESE,113,0.0,-999.0,86,0.00,,,0.00,Wunderground v.1.15,2013-07-08 10:04:00,
2013-07-08 05:09:00,69.6,65.2,30.00,N/A,-737280,0.0,-999.0,86,0.00,,,0.00,Wunderground v.1.15,2013-07-08 10:09:00,
2013-07-08 05:14:00,69.6,65.2,30.01,ESE,113,0.0,-999.0,86,0.00,,,0.00,Wunderground v.1.15,2013-07-08 10:14:00,
2013-07-08 05:19:00,69.6,65.2,30.01,ESE,113,0.0,-999.0,86,0.00,,,0.00,Wunderground v.1.15,2013-07-08 10:19:00,
2013-07-08 05:24:00,69.8,65.4,30.01,N/A,-737280,0.0,-999.0,86,0.00,,,0.00,Wunderground v.1.15,2013-07-08 10:24:00,
2013-07-08 05:29:00,69.8,65.4,30.01,N/A,-737280,0.0,-999.0,86,0.00,,,0.00,Wunderground v.1.15,2013-07-08 10:29:00,
2013-07-08 05:34:00,70.0,65.6,30.01,ESE,113,0.0,-999.0,86,0.00,,,0.00,Wunderground v.1.15,2013-07-08 10:34:00,
2013-07-08 05:39:00,70.2,65.8,30.01,ESE,113,0.0,-999.0,86,0.00,,,0.00,Wunderground v.1.15,2013-07-08 10:39:00,
2013-07-08 05:44:00,70.5,65.8,30.02,ESE,113,1.0,-999.0,85,0.00,,,0.00,Wunderground v.1.15,2013-07-08 10:44:00,
2013-07-08 05:49:00,70.8,66.1,30.02,ESE,113,0.0,-999.0,85,0.00,,,0.00,Wunderground v.1.15,2013-07-08 10:49:00,
2013-07-08 05:54:00,71.1,66.0,30.02,ESE,113,1.0,-999.0,84,0.00,,,0.00,Wunderground v.1.15,2013-07-08 10:54:00,
2013-07-08 05:59:00,71.5,66.1,30.02,ESE,113,1.0,-999.0,83,0.00,,,0.00,Wunderground v.1.15,2013-07-08 10:59:00,
2013-07-08 06:04:00,71.8,66.0,30.02,ESE,113,1.0,-999.0,82,0.00,,,0.00,Wunderground v.1.15,2013-07-08 11:04:00,
2013-07-08 06:09:00,72.2,66.4,30.02,SE,135,1.0,-999.0,82,0.00,,,0.00,Wunderground v.1.15,2013-07-08 11:09:00,
2013-07-08 06:14:00,72.5,66.7,30.02,SE,135,0.0,-999.0,82,0.00,,,0.00,Wunderground v.1.15,2013-07-08 11:14:00,
2013-07-08 06:19:00,72.8,66.6,30.02,SE,135,1.0,-999.0,81,0.00,,,0.00,Wunderground v.1.15,2013-07-08 11:19:00,
2013-07-08 06:24:00,73.0,66.8,30.02,SE,135,0.0,-999.0,81,0.00,,,0.00,Wunderground v.1.15,2013-07-08 11:24:00,
2013-07-08 06:29:00,73.3,66.8,30.02,SE,135,1.0,-999.0,80,0.00,,,0.00,Wunderground v.1.15,2013-07-08 11:29:00,
2013-07-08 06:34:00,73.6,67.0,30.02,SE,135,1.0,-999.0,80,0.00,,,0.00,Wunderground v.1.15,2013-07-08 11:34:00,
2013-07-08 06:39:00,73.7,66.8,30.02,SE,135,1.0,-999.0,79,0.00,,,0.00,Wunderground v.1.15,2013-07-08 11:39:00,
2013-07-08 06:44:00,73.9,67.0,30.03,SE,135,1.0,-999.0,79,0.00,,,0.00,Wunderground v.1.15,2013-07-08 11:44:00,
2013-07-08 06:49:00,74.0,67.1,30.03,SE,135,1.0,-999.0,79,0.00,,,0.00,Wunderground v.1.15,2013-07-08 11:49:00,
2013-07-08 06:54:00,74.0,67.1,30.03,SE,135,2.0,-999.0,79,0.00,,,0.00,Wunderground v.1.15,2013-07-08 11:54:00,
2013-07-08 06:59:00,74.2,67.3,30.04,SE,135,1.0,-999.0,79,0.00,,,0.00,Wunderground v.1.15,2013-07-08 11:59:00,
2013-07-08 07:04:00,74.4,67.1,30.04,SE,135,1.0,-999.0,78,0.00,,,0.00,Wunderground v.1.15,2013-07-08 12:04:00,
2013-07-08 07:09:00,74.6,67.3,30.04,SE,135,1.0,-999.0,78,0.00,,,0.00,Wunderground v.1.15,2013-07-08 12:09:00,
2013-07-08 07:14:00,74.8,67.5,30.05,SE,135,0.0,-999.0,78,0.00,,,0.00,Wunderground v.1.15,2013-07-08 12:14:00,
2013-07-08 07:19:00,75.2,67.9,30.05,SE,135,0.0,-999.0,78,0.00,,,0.00,Wunderground v.1.15,2013-07-08 12:19:00,
2013-07-08 07:24:00,75.7,68.0,30.05,SE,135,0.0,-999.0,77,0.00,,,0.00,Wunderground v.1.15,2013-07-08 12:24:00,
2013-07-08 07:29:00,76.1,68.0,30.04,South,180,0.0,-999.0,76,0.00,,,0.00,Wunderground v.1.15,2013-07-08 12:29:00,
2013-07-08 07:34:00,76.6,68.1,30.04,South,180,1.0,-999.0,75,0.00,,,0.00,Wunderground v.1.15,2013-07-08 12:34:00,
2013-07-08 07:39:00,76.9,68.0,30.04,South,180,2.0,-999.0,74,0.00,,,0.00,Wunderground v.1.15,2013-07-08 12:39:00,
2013-07-08 07:44:00,77.3,68.8,30.04,SSE,158,0.0,-999.0,75,0.00,,,0.00,Wunderground v.1.15,2013-07-08 12:44:00,
2013-07-08 07:49:00,77.6,68.7,30.04,SSE,158,0.0,-999.0,74,0.00,,,0.00,Wunderground v.1.15,2013-07-08 12:49:00,
2013-07-08 07:54:00,77.9,68.5,30.04,SSW,203,1.0,-999.0,73,0.00,,,0.00,Wunderground v.1.15,2013-07-08 12:54:00,
2013-07-08 07:59:00,78.2,68.8,30.04,SSE,158,0.0,-999.0,73,0.00,,,0.00,Wunderground v.1.15,2013-07-08 12:59:00,
2013-07-08 08:04:00,78.5,68.7,30.04,SSE,158,1.0,-999.0,72,0.00,,,0.00,Wunderground v.1.15,2013-07-08 13:04:00,
2013-07-08 08:09:00,78.6,68.8,30.04,South,180,1.0,-999.0,72,0.00,,,0.00,Wunderground v.1.15,2013-07-08 13:09:00,
2013-07-08 08:14:00,78.9,69.1,30.05,South,180,0.0,-999.0,72,0.00,,,0.00,Wunderground v.1.15,2013-07-08 13:14:00,
2013-07-08 08:19:00,79.1,69.3,30.05,South,180,0.0,-999.0,72,0.00,,,0.00,Wunderground v.1.15,2013-07-08 13:19:00,
2013-07-08 08:24:00,79.4,69.2,30.05,South,180,1.0,-999.0,71,0.00,,,0.00,Wunderground v.1.15,2013-07-08 13:24:00,
2013-07-08 08:29:00,79.5,69.7,30.04,South,180,0.0,-999.0,72,0.00,,,0.00,Wunderground v.1.15,2013-07-08 13:29:00,
2013-07-08 08:34:00,79.6,69.4,30.04,South,180,0.0,-999.0,71,0.00,,,0.00,Wunderground v.1.15,2013-07-08 13:34:00,
2013-07-08 08:39:00,79.8,70.0,30.04,South,180,0.0,-999.0,72,0.00,,,0.00,Wunderground v.1.15,2013-07-08 13:39:00,
2013-07-08 08:44:00,80.0,69.7,30.04,SSE,158,1.0,-999.0,71,0.00,,,0.00,Wunderground v.1.15,2013-07-08 13:44:00,
2013-07-08 08:49:00,80.1,69.0,30.04,SSW,203,2.0,-999.0,69,0.00,,,0.00,Wunderground v.1.15,2013-07-08 13:49:00,
2013-07-08 08:54:00,80.2,69.9,30.04,SSE,158,0.0,-999.0,71,0.00,,,0.00,Wunderground v.1.15,2013-07-08 13:54:00,
2013-07-08 08:59:00,80.4,70.1,30.05,SE,135,1.0,-999.0,71,0.00,,,0.00,Wunderground v.1.15,2013-07-08 13:59:00,
2013-07-08 09:04:00,80.6,69.9,30.05,SE,135,1.0,-999.0,70,0.00,,,0.00,Wunderground v.1.15,2013-07-08 14:04:00,
2013-07-08 09:09:00,80.8,69.7,30.05,South,180,0.0,-999.0,69,0.00,,,0.00,Wunderground v.1.15,2013-07-08 14:09:00,
2013-07-08 09:14:00,80.9,69.8,30.05,South,180,0.0,-999.0,69,0.00,,,0.00,Wunderground v.1.15,2013-07-08 14:14:00,
2013-07-08 09:19:00,81.1,70.0,30.05,South,180,0.0,-999.0,69,0.00,,,0.00,Wunderground v.1.15,2013-07-08 14:19:00,
2013-07-08 09:24:00,81.2,69.6,30.05,SSW,203,0.0,-999.0,68,0.00,,,0.00,Wunderground v.1.15,2013-07-08 14:24:00,
2013-07-08 09:29:00,81.4,70.2,30.05,SSW,203,0.0,-999.0,69,0.00,,,0.00,Wunderground v.1.15,2013-07-08 14:29:00,
2013-07-08 09:34:00,81.6,69.6,30.05,SSW,203,1.0,-999.0,67,0.00,,,0.00,Wunderground v.1.15,2013-07-08 14:34:00,
2013-07-08 09:39:00,81.9,69.9,30.05,SSW,203,0.0,-999.0,67,0.00,,,0.00,Wunderground v.1.15,2013-07-08 14:39:00,
2013-07-08 09:44:00,82.5,70.0,30.05,SSW,203,1.0,-999.0,66,0.00,,,0.00,Wunderground v.1.15,2013-07-08 14:44:00,
2013-07-08 09:49:00,83.1,70.1,30.05,South,180,0.0,-999.0,65,0.00,,,0.00,Wunderground v.1.15,2013-07-08 14:49:00,
2013-07-08 09:54:00,83.6,69.7,30.05,South,180,1.0,-999.0,63,0.00,,,0.00,Wunderground v.1.15,2013-07-08 14:54:00,
2013-07-08 09:59:00,83.8,69.9,30.04,SSW,203,1.0,-999.0,63,0.00,,,0.00,Wunderground v.1.15,2013-07-08 14:59:00,
2013-07-08 10:04:00,84.0,70.0,30.04,South,180,1.0,-999.0,63,0.00,,,0.00,Wunderground v.1.15,2013-07-08 15:04:00,
2013-07-08 10:09:00,84.1,69.7,30.04,South,180,1.0,-999.0,62,0.00,,,0.00,Wunderground v.1.15,2013-07-08 15:09:00,
2013-07-08 10:14:00,84.3,69.9,30.04,South,180,0.0,-999.0,62,0.00,,,0.00,Wunderground v.1.15,2013-07-08 15:14:00,
2013-07-08 10:19:00,84.9,69.9,30.04,SSW,203,1.0,-999.0,61,0.00,,,0.00,Wunderground v.1.15,2013-07-08 15:19:00,
2013-07-08 10:24:00,85.5,69.5,30.04,SSW,203,1.0,-999.0,59,0.00,,,0.00,Wunderground v.1.15,2013-07-08 15:24:00,
2013-07-08 10:29:00,85.9,68.9,30.04,SSW,203,0.0,-999.0,57,0.00,,,0.00,Wunderground v.1.15,2013-07-08 15:29:00,
2013-07-08 10:34:00,86.3,70.8,30.04,SSW,203,0.0,-999.0,60,0.00,,,0.00,Wunderground v.1.15,2013-07-08 15:34:00,
2013-07-08 10:39:00,86.5,71.0,30.04,SSW,203,1.0,-999.0,60,0.00,,,0.00,Wunderground v.1.15,2013-07-08 15:39:00,
2013-07-08 10:44:00,86.8,69.2,30.04,SSW,203,1.0,-999.0,56,0.00,,,0.00,Wunderground v.1.15,2013-07-08 15:44:00,
2013-07-08 10:49:00,87.0,69.4,30.04,ESE,113,0.0,-999.0,56,0.00,,,0.00,Wunderground v.1.15,2013-07-08 15:49:00,
2013-07-08 10:54:00,87.3,69.7,30.04,SSW,203,1.0,-999.0,56,0.00,,,0.00,Wunderground v.1.15,2013-07-08 15:54:00,
2013-07-08 10:59:00,87.7,71.1,30.03,SSW,203,0.0,-999.0,58,0.00,,,0.00,Wunderground v.1.15,2013-07-08 15:59:00,
2013-07-08 11:04:00,88.1,70.4,30.03,WSW,248,0.0,-999.0,56,0.00,,,0.00,Wunderground v.1.15,2013-07-08 16:04:00,
2013-07-08 11:09:00,88.1,69.9,30.03,SSE,158,2.0,-999.0,55,0.00,,,0.00,Wunderground v.1.15,2013-07-08 16:09:00,
2013-07-08 11:14:00,87.8,69.6,30.04,South,180,1.0,-999.0,55,0.00,,,0.00,Wunderground v.1.15,2013-07-08 16:14:00,
2013-07-08 11:19:00,88.1,69.9,30.04,South,180,0.0,-999.0,55,0.00,,,0.00,Wunderground v.1.15,2013-07-08 16:19:00,
2013-07-08 11:24:00,88.5,68.6,30.04,South,180,0.0,-999.0,52,0.00,,,0.00,Wunderground v.1.15,2013-07-08 16:24:00,
2013-07-08 11:29:00,88.9,69.0,30.03,SSE,158,2.0,-999.0,52,0.00,,,0.00,Wunderground v.1.15,2013-07-08 16:29:00,
2013-07-08 11:34:00,89.0,68.5,30.03,SW,225,1.0,-999.0,51,0.00,,,0.00,Wunderground v.1.15,2013-07-08 16:34:00,
2013-07-08 11:39:00,89.1,68.6,30.03,SSW,203,0.0,-999.0,51,0.00,,,0.00,Wunderground v.1.15,2013-07-08 16:39:00,
2013-07-08 11:44:00,88.5,68.6,30.03,SE,135,1.0,-999.0,52,0.00,,,0.00,Wunderground v.1.15,2013-07-08 16:44:00,
2013-07-08 11:49:00,88.2,69.5,30.03,SSE,158,1.0,-999.0,54,0.00,,,0.00,Wunderground v.1.15,2013-07-08 16:49:00,
2013-07-08 11:54:00,88.3,67.9,30.03,SSW,203,1.0,-999.0,51,0.00,,,0.00,Wunderground v.1.15,2013-07-08 16:54:00,
2013-07-08 11:59:00,88.6,68.2,30.02,SSW,203,1.0,-999.0,51,0.00,,,0.00,Wunderground v.1.15,2013-07-08 16:59:00,
2013-07-08 12:04:00,88.8,67.2,30.02,SSW,203,0.0,-999.0,49,0.00,,,0.00,Wunderground v.1.15,2013-07-08 17:04:00,
2013-07-08 12:09:00,88.7,68.2,30.02,SSW,203,0.0,-999.0,51,0.00,,,0.00,Wunderground v.1.15,2013-07-08 17:09:00,
2013-07-08 12:14:00,88.5,69.2,30.02,SSW,203,0.0,-999.0,53,0.00,,,0.00,Wunderground v.1.15,2013-07-08 17:14:00,
2013-07-08 12:19:00,88.7,67.7,30.02,SE,135,1.0,-999.0,50,0.00,,,0.00,Wunderground v.1.15,2013-07-08 17:19:00,
2013-07-08 12:24:00,89.3,66.4,30.02,SSW,203,0.0,-999.0,47,0.00,,,0.00,Wunderground v.1.15,2013-07-08 17:24:00,
2013-07-08 12:29:00,89.5,67.2,30.02,South,180,1.0,-999.0,48,0.00,,,0.00,Wunderground v.1.15,2013-07-08 17:29:00,
2013-07-08 12:34:00,89.1,67.5,30.02,ESE,113,0.0,-999.0,49,0.00,,,0.00,Wunderground v.1.15,2013-07-08 17:34:00,
2013-07-08 12:39:00,88.8,66.6,30.02,South,180,0.0,-999.0,48,0.00,,,0.00,Wunderground v.1.15,2013-07-08 17:39:00,
2013-07-08 12:44:00,88.8,68.3,30.01,South,180,0.0,-999.0,51,0.00,,,0.00,Wunderground v.1.15,2013-07-08 17:44:00,
2013-07-08 12:49:00,89.2,65.7,30.01,South,180,1.0,-999.0,46,0.00,,,0.00,Wunderground v.1.15,2013-07-08 17:49:00,
2013-07-08 12:54:00,89.5,67.2,30.01,East,90,1.0,-999.0,48,0.00,,,0.00,Wunderground v.1.15,2013-07-08 17:54:00,
2013-07-08 12:59:00,89.7,67.4,30.01,South,180,1.0,-999.0,48,0.00,,,0.00,Wunderground v.1.15,2013-07-08 17:59:00,
2013-07-08 13:04:00,89.9,68.2,30.01,SSE,158,0.0,-999.0,49,0.00,,,0.00,Wunderground v.1.15,2013-07-08 18:04:00,
2013-07-08 13:09:00,89.7,67.4,30.01,SSE,158,0.0,-999.0,48,0.00,,,0.00,Wunderground v.1.15,2013-07-08 18:09:00,
2013-07-08 13:14:00,89.2,68.1,30.01,SSW,203,0.0,-999.0,50,0.00,,,0.00,Wunderground v.1.15,2013-07-08 18:14:00,
2013-07-08 13:19:00,89.0,68.5,30.01,SSW,203,0.0,-999.0,51,0.00,,,0.00,Wunderground v.1.15,2013-07-08 18:19:00,
2013-07-08 13:24:00,89.0,67.4,30.01,SSW,203,0.0,-999.0,49,0.00,,,0.00,Wunderground v.1.15,2013-07-08 18:24:00,
2013-07-08 13:29:00,88.9,69.0,30.00,SSW,203,0.0,-999.0,52,0.00,,,0.00,Wunderground v.1.15,2013-07-08 18:29:00,
2013-07-08 13:34:00,89.0,67.9,30.00,SSE,158,1.0,-999.0,50,0.00,,,0.00,Wunderground v.1.15,2013-07-08 18:34:00,
2013-07-08 13:39:00,89.0,67.4,30.00,South,180,1.0,-999.0,49,0.00,,,0.00,Wunderground v.1.15,2013-07-08 18:39:00,
2013-07-08 13:44:00,88.8,67.2,30.00,SSE,158,0.0,-999.0,49,0.00,,,0.00,Wunderground v.1.15,2013-07-08 18:44:00,
2013-07-08 13:49:00,88.6,68.7,30.00,N/A,-737280,0.0,-999.0,52,0.00,,,0.00,Wunderground v.1.15,2013-07-08 18:49:00,
2013-07-08 13:54:00,88.6,68.7,30.00,SSE,158,0.0,-999.0,52,0.00,,,0.00,Wunderground v.1.15,2013-07-08 18:54:00,
2013-07-08 13:59:00,88.6,67.6,30.00,SSE,158,0.0,-999.0,50,0.00,,,0.00,Wunderground v.1.15,2013-07-08 18:59:00,
2013-07-08 14:04:00,88.7,68.2,30.00,SSE,158,0.0,-999.0,51,0.00,,,0.00,Wunderground v.1.15,2013-07-08 19:04:00,
2013-07-08 14:09:00,88.9,66.7,30.00,SSE,158,0.0,-999.0,48,0.00,,,0.00,Wunderground v.1.15,2013-07-08 19:09:00,
2013-07-08 14:14:00,89.3,67.6,30.00,South,180,0.0,-999.0,49,0.00,,,0.00,Wunderground v.1.15,2013-07-08 19:14:00,
2013-07-08 14:19:00,89.6,67.3,30.00,ESE,113,0.0,-999.0,48,0.00,,,0.00,Wunderground v.1.15,2013-07-08 19:19:00,
2013-07-08 14:24:00,89.9,67.0,30.00,SW,225,1.0,-999.0,47,0.00,,,0.00,Wunderground v.1.15,2013-07-08 19:24:00,
2013-07-08 14:29:00,90.3,66.7,29.99,South,180,1.0,-999.0,46,0.00,,,0.00,Wunderground v.1.15,2013-07-08 19:29:00,
2013-07-08 14:34:00,90.7,66.4,29.99,South,180,0.0,-999.0,45,0.00,,,0.00,Wunderground v.1.15,2013-07-08 19:34:00,
2013-07-08 14:39:00,91.2,67.5,29.99,South,180,0.0,-999.0,46,0.00,,,0.00,Wunderground v.1.15,2013-07-08 19:39:00,
2013-07-08 14:44:00,91.5,64.5,29.99,SSE,158,1.0,-999.0,41,0.00,,,0.00,Wunderground v.1.15,2013-07-08 19:44:00,
2013-07-08 14:49:00,91.4,66.4,29.99,SSE,158,0.0,-999.0,44,0.00,,,0.00,Wunderground v.1.15,2013-07-08 19:49:00,
2013-07-08 14:54:00,91.5,65.2,29.99,South,180,0.0,-999.0,42,0.00,,,0.00,Wunderground v.1.15,2013-07-08 19:54:00,
2013-07-08 14:59:00,91.4,66.4,29.99,South,180,0.0,-999.0,44,0.00,,,0.00,Wunderground v.1.15,2013-07-08 19:59:00,
2013-07-08 15:04:00,91.2,68.2,29.99,South,180,0.0,-999.0,47,0.00,,,0.00,Wunderground v.1.15,2013-07-08 20:04:00,
2013-07-08 15:09:00,91.0,68.6,29.99,South,180,0.0,-999.0,48,0.00,,,0.00,Wunderground v.1.15,2013-07-08 20:09:00,
2013-07-08 15:14:00,90.9,68.5,29.99,South,180,0.0,-999.0,48,0.00,,,0.00,Wunderground v.1.15,2013-07-08 20:14:00,
2013-07-08 15:19:00,90.6,67.6,29.99,ESE,113,0.0,-999.0,47,0.00,,,0.00,Wunderground v.1.15,2013-07-08 20:19:00,
2013-07-08 15:24:00,90.4,67.4,29.99,SSE,158,1.0,-999.0,47,0.00,,,0.00,Wunderground v.1.15,2013-07-08 20:24:00,
2013-07-08 15:29:00,90.2,67.9,29.99,SSW,203,1.0,-999.0,48,0.00,,,0.00,Wunderground v.1.15,2013-07-08 20:29:00,
2013-07-08 15:34:00,90.1,67.2,29.99,NE,45,1.0,-999.0,47,0.00,,,0.00,Wunderground v.1.15,2013-07-08 20:34:00,
2013-07-08 15:39:00,90.2,67.2,29.99,SE,135,1.0,-999.0,47,0.00,,,0.00,Wunderground v.1.15,2013-07-08 20:39:00,
2013-07-08 15:44:00,90.4,67.4,29.98,SSE,158,1.0,-999.0,47,0.00,,,0.00,Wunderground v.1.15,2013-07-08 20:44:00,
2013-07-08 15:49:00,90.6,66.3,29.98,South,180,1.0,-999.0,45,0.00,,,0.00,Wunderground v.1.15,2013-07-08 20:49:00,
2013-07-08 15:54:00,91.0,66.1,29.98,South,180,1.0,-999.0,44,0.00,,,0.00,Wunderground v.1.15,2013-07-08 20:54:00,
2013-07-08 15:59:00,91.2,66.9,29.98,South,180,1.0,-999.0,45,0.00,,,0.00,Wunderground v.1.15,2013-07-08 20:59:00,
2013-07-08 16:04:00,91.3,65.7,29.98,SSW,203,2.0,-999.0,43,0.00,,,0.00,Wunderground v.1.15,2013-07-08 21:04:00,
2013-07-08 16:09:00,91.4,65.8,29.98,SSE,158,1.0,-999.0,43,0.00,,,0.00,Wunderground v.1.15,2013-07-08 21:09:00,
2013-07-08 16:14:00,91.5,65.8,29.98,SSE,158,0.0,-999.0,43,0.00,,,0.00,Wunderground v.1.15,2013-07-08 21:14:00,
2013-07-08 16:19:00,91.6,64.6,29.98,SSE,158,2.0,-999.0,41,0.00,,,0.00,Wunderground v.1.15,2013-07-08 21:19:00,
2013-07-08 16:24:00,91.6,64.6,29.98,SSE,158,0.0,-999.0,41,0.00,,,0.00,Wunderground v.1.15,2013-07-08 21:24:00,
2013-07-08 16:29:00,91.4,63.7,29.97,SSE,158,2.0,-999.0,40,0.00,,,0.00,Wunderground v.1.15,2013-07-08 21:29:00,
2013-07-08 16:34:00,91.3,65.7,29.97,SSE,158,1.0,-999.0,43,0.00,,,0.00,Wunderground v.1.15,2013-07-08 21:34:00,
2013-07-08 16:39:00,91.4,64.4,29.97,SSE,158,2.0,-999.0,41,0.00,,,0.00,Wunderground v.1.15,2013-07-08 21:39:00,
2013-07-08 16:44:00,91.4,64.4,29.97,SSE,158,1.0,-999.0,41,0.00,,,0.00,Wunderground v.1.15,2013-07-08 21:44:00,
2013-07-08 16:49:00,91.2,66.2,29.97,SSW,203,1.0,-999.0,44,0.00,,,0.00,Wunderground v.1.15,2013-07-08 21:49:00,
2013-07-08 16:54:00,91.0,64.7,29.97,SSE,158,0.0,-999.0,42,0.00,,,0.00,Wunderground v.1.15,2013-07-08 21:54:00,
2013-07-08 16:59:00,91.0,65.4,29.97,SSW,203,1.0,-999.0,43,0.00,,,0.00,Wunderground v.1.15,2013-07-08 21:59:00,
2013-07-08 17:04:00,90.8,65.9,29.97,SE,135,1.0,-999.0,44,0.00,,,0.00,Wunderground v.1.15,2013-07-08 22:04:00,
2013-07-08 17:09:00,90.7,65.1,29.97,SSE,158,1.0,-999.0,43,0.00,,,0.00,Wunderground v.1.15,2013-07-08 22:09:00,
2013-07-08 17:14:00,90.6,64.4,29.97,SSE,158,2.0,-999.0,42,0.00,,,0.00,Wunderground v.1.15,2013-07-08 22:14:00,
2013-07-08 17:19:00,90.5,65.6,29.97,SSE,158,1.0,-999.0,44,0.00,,,0.00,Wunderground v.1.15,2013-07-08 22:19:00,
2013-07-08 17:24:00,90.5,65.6,29.97,SSE,158,3.0,-999.0,44,0.00,,,0.00,Wunderground v.1.15,2013-07-08 22:24:00,
2013-07-08 17:29:00,90.3,66.1,29.96,South,180,1.0,-999.0,45,0.00,,,0.00,Wunderground v.1.15,2013-07-08 22:29:00,
2013-07-08 17:34:00,90.3,66.1,29.96,SE,135,1.0,-999.0,45,0.00,,,0.00,Wunderground v.1.15,2013-07-08 22:34:00,
2013-07-08 17:39:00,90.2,66.0,29.96,SSE,158,2.0,-999.0,45,0.00,,,0.00,Wunderground v.1.15,2013-07-08 22:39:00,
2013-07-08 17:44:00,90.1,66.5,29.96,ESE,113,0.0,-999.0,46,0.00,,,0.00,Wunderground v.1.15,2013-07-08 22:44:00,
2013-07-08 17:49:00,89.8,66.9,29.96,SE,135,0.0,-999.0,47,0.00,,,0.00,Wunderground v.1.15,2013-07-08 22:49:00,
2013-07-08 17:54:00,89.4,67.1,29.96,SSE,158,0.0,-999.0,48,0.00,,,0.00,Wunderground v.1.15,2013-07-08 22:54:00,
2013-07-08 17:59:00,89.1,66.9,29.96,SSE,158,0.0,-999.0,48,0.00,,,0.00,Wunderground v.1.15,2013-07-08 22:59:00,
2013-07-08 18:04:00,88.8,67.8,29.96,ESE,113,0.0,-999.0,50,0.00,,,0.00,Wunderground v.1.15,2013-07-08 23:04:00,
2013-07-08 18:09:00,88.6,67.6,29.96,ESE,113,0.0,-999.0,50,0.00,,,0.00,Wunderground v.1.15,2013-07-08 23:09:00,
2013-07-08 18:14:00,88.3,66.7,29.96,SSE,158,2.0,-999.0,49,0.00,,,0.00,Wunderground v.1.15,2013-07-08 23:14:00,
2013-07-08 18:19:00,88.2,67.2,29.96,SE,135,0.0,-999.0,50,0.00,,,0.00,Wunderground v.1.15,2013-07-08 23:19:00,
2013-07-08 18:24:00,88.0,67.6,29.96,SE,135,1.0,-999.0,51,0.00,,,0.00,Wunderground v.1.15,2013-07-08 23:24:00,
2013-07-08 18:29:00,87.7,67.9,29.96,SE,135,1.0,-999.0,52,0.00,,,0.00,Wunderground v.1.15,2013-07-08 23:29:00,
2013-07-08 18:34:00,87.5,66.6,29.96,SE,135,1.0,-999.0,50,0.00,,,0.00,Wunderground v.1.15,2013-07-08 23:34:00,
2013-07-08 18:39:00,87.3,67.0,29.96,SSE,158,0.0,-999.0,51,0.00,,,0.00,Wunderground v.1.15,2013-07-08 23:39:00,
2013-07-08 18:44:00,87.1,67.3,29.96,SE,135,0.0,-999.0,52,0.00,,,0.00,Wunderground v.1.15,2013-07-08 23:44:00,
2013-07-08 18:49:00,86.8,67.1,29.96,SSE,158,1.0,-999.0,52,0.00,,,0.00,Wunderground v.1.15,2013-07-08 23:49:00,
2013-07-08 18:54:00,86.5,66.8,29.96,South,180,0.0,-999.0,52,0.00,,,0.00,Wunderground v.1.15,2013-07-08 23:54:00,
2013-07-08 18:59:00,86.2,67.6,29.97,SE,135,0.0,-999.0,54,0.00,,,0.00,Wunderground v.1.15,2013-07-08 23:59:00,
2013-07-08 19:04:00,85.9,66.8,29.97,WSW,248,0.0,-999.0,53,0.00,,,0.00,Wunderground v.1.15,2013-07-09 00:04:00,
2013-07-08 19:09:00,85.5,67.5,29.97,South,180,0.0,-999.0,55,0.00,,,0.00,Wunderground v.1.15,2013-07-09 00:09:00,
2013-07-08 19:14:00,85.1,68.2,29.97,South,180,0.0,-999.0,57,0.00,,,0.00,Wunderground v.1.15,2013-07-09 00:14:00,
2013-07-08 19:19:00,84.7,67.3,29.97,SW,225,0.0,-999.0,56,0.00,,,0.00,Wunderground v.1.15,2013-07-09 00:19:00,
2013-07-08 19:24:00,84.4,67.0,29.97,SSW,203,0.0,-999.0,56,0.00,,,0.00,Wunderground v.1.15,2013-07-09 00:24:00,
2013-07-08 19:29:00,84.1,68.2,29.96,N/A,-737280,0.0,-999.0,59,0.00,,,0.00,Wunderground v.1.15,2013-07-09 00:29:00,
2013-07-08 19:34:00,83.8,67.9,29.96,N/A,-737280,0.0,-999.0,59,0.00,,,0.00,Wunderground v.1.15,2013-07-09 00:34:00,
2013-07-08 19:39:00,83.3,67.5,29.96,N/A,-737280,0.0,-999.0,59,0.00,,,0.00,Wunderground v.1.15,2013-07-09 00:39:00,
2013-07-08 19:44:00,82.6,67.8,29.97,N/A,-737280,0.0,-999.0,61,0.00,,,0.00,Wunderground v.1.15,2013-07-09 00:44:00,
2013-07-08 19:49:00,82.0,67.7,29.97,N/A,-737280,0.0,-999.0,62,0.00,,,0.00,Wunderground v.1.15,2013-07-09 00:49:00,
2013-07-08 19:54:00,81.4,67.1,29.97,N/A,-737280,0.0,-999.0,62,0.00,,,0.00,Wunderground v.1.15,2013-07-09 00:54:00,
2013-07-08 19:59:00,80.9,67.1,29.97,N/A,-737280,0.0,-999.0,63,0.00,,,0.00,Wunderground v.1.15,2013-07-09 00:59:00,
2013-07-08 20:04:00,80.4,67.6,29.97,N/A,-737280,0.0,-999.0,65,0.00,,,0.00,Wunderground v.1.15,2013-07-09 01:04:00,
2013-07-08 20:09:00,80.0,67.6,29.97,N/A,-737280,0.0,-999.0,66,0.00,,,0.00,Wunderground v.1.15,2013-07-09 01:09:00,
2013-07-08 20:14:00,79.6,67.7,29.97,N/A,-737280,0.0,-999.0,67,0.00,,,0.00,Wunderground v.1.15,2013-07-09 01:14:00,
2013-07-08 20:19:00,79.2,67.7,29.97,N/A,-737280,0.0,-999.0,68,0.00,,,0.00,Wunderground v.1.15,2013-07-09 01:19:00,
2013-07-08 20:24:00,78.8,67.3,29.97,N/A,-737280,0.0,-999.0,68,0.00,,,0.00,Wunderground v.1.15,2013-07-09 01:24:00,
2013-07-08 20:29:00,78.4,67.4,29.98,N/A,-737280,0.0,-999.0,69,0.00,,,0.00,Wunderground v.1.15,2013-07-09 01:29:00,
2013-07-08 20:34:00,78.1,67.1,29.98,N/A,-737280,0.0,-999.0,69,0.00,,,0.00,Wunderground v.1.15,2013-07-09 01:34:00,
2013-07-08 20:39:00,77.8,67.2,29.98,N/A,-737280,0.0,-999.0,70,0.00,,,0.00,Wunderground v.1.15,2013-07-09 01:39:00,
2013-07-08 20:44:00,77.5,67.8,29.99,N/A,-737280,0.0,-999.0,72,0.00,,,0.00,Wunderground v.1.15,2013-07-09 01:44:00,
2013-07-08 20:49:00,77.3,67.6,29.99,N/A,-737280,0.0,-999.0,72,0.00,,,0.00,Wunderground v.1.15,2013-07-09 01:49:00,
2013-07-08 20:54:00,77.0,67.7,29.99,N/A,-737280,0.0,-999.0,73,0.00,,,0.00,Wunderground v.1.15,2013-07-09 01:54:00,
2013-07-08 20:59:00,76.8,67.5,29.99,N/A,-737280,0.0,-999.0,73,0.00,,,0.00,Wunderground v.1.15,2013-07-09 01:59:00,
2013-07-08 21:04:00,76.6,67.3,29.99,N/A,-737280,0.0,-999.0,73,0.00,,,0.00,Wunderground v.1.15,2013-07-09 02:04:00,
2013-07-08 21:09:00,76.4,67.5,29.99,N/A,-737280,0.0,-999.0,74,0.00,,,0.00,Wunderground v.1.15,2013-07-09 02:09:00,
2013-07-08 21:14:00,76.2,67.3,29.99,N/A,-737280,0.0,-999.0,74,0.00,,,0.00,Wunderground v.1.15,2013-07-09 02:14:00,
2013-07-08 21:19:00,76.1,67.2,29.99,N/A,-737280,0.0,-999.0,74,0.00,,,0.00,Wunderground v.1.15,2013-07-09 02:19:00,
2013-07-08 21:24:00,75.9,67.4,29.99,N/A,-737280,0.0,-999.0,75,0.00,,,0.00,Wunderground v.1.15,2013-07-09 02:24:00,
2013-07-08 21:29:00,75.8,67.3,29.99,N/A,-737280,0.0,-999.0,75,0.00,,,0.00,Wunderground v.1.15,2013-07-09 02:29:00,
2013-07-08 21:34:00,75.7,67.6,29.99,N/A,-737280,0.0,-999.0,76,0.00,,,0.00,Wunderground v.1.15,2013-07-09 02:34:00,
2013-07-08 21:39:00,75.6,67.9,29.99,N/A,-737280,0.0,-999.0,77,0.00,,,0.00,Wunderground v.1.15,2013-07-09 02:39:00,
2013-07-08 21:44:00,75.6,67.9,29.99,N/A,-737280,0.0,-999.0,77,0.00,,,0.00,Wunderground v.1.15,2013-07-09 02:44:00,
2013-07-08 21:49:00,75.4,67.7,29.99,N/A,-737280,0.0,-999.0,77,0.00,,,0.00,Wunderground v.1.15,2013-07-09 02:49:00,
2013-07-08 21:54:00,75.3,67.6,29.99,N/A,-737280,0.0,-999.0,77,0.00,,,0.00,Wunderground v.1.15,2013-07-09 02:54:00,
2013-07-08 21:59:00,75.3,67.6,30.00,N/A,-737280,0.0,-999.0,77,0.00,,,0.00,Wunderground v.1.15,2013-07-09 02:59:00,
2013-07-08 22:04:00,75.3,67.6,30.00,N/A,-737280,0.0,-999.0,77,0.00,,,0.00,Wunderground v.1.15,2013-07-09 03:04:00,
2013-07-08 22:09:00,75.3,67.6,30.00,N/A,-737280,0.0,-999.0,77,0.00,,,0.00,Wunderground v.1.15,2013-07-09 03:09:00,
2013-07-08 22:14:00,75.3,68.0,30.00,N/A,-737280,0.0,-999.0,78,0.00,,,0.00,Wunderground v.1.15,2013-07-09 03:14:00,
2013-07-08 22:19:00,75.2,67.9,30.00,N/A,-737280,0.0,-999.0,78,0.00,,,0.00,Wunderground v.1.15,2013-07-09 03:19:00,
2013-07-08 22:24:00,75.1,67.4,30.00,N/A,-737280,0.0,-999.0,77,0.00,,,0.00,Wunderground v.1.15,2013-07-09 03:24:00,
2013-07-08 22:29:00,74.9,67.2,30.00,N/A,-737280,0.0,-999.0,77,0.00,,,0.00,Wunderground v.1.15,2013-07-09 03:29:00,
2013-07-08 22:34:00,74.8,67.5,30.00,N/A,-737280,0.0,-999.0,78,0.00,,,0.00,Wunderground v.1.15,2013-07-09 03:34:00,
2013-07-08 22:39:00,74.7,67.8,30.00,N/A,-737280,0.0,-999.0,79,0.00,,,0.00,Wunderground v.1.15,2013-07-09 03:39:00,
2013-07-08 22:44:00,74.8,67.5,29.99,N/A,-737280,0.0,-999.0,78,0.00,,,0.00,Wunderground v.1.15,2013-07-09 03:44:00,
2013-07-08 22:49:00,74.9,67.6,29.99,N/A,-737280,0.0,-999.0,78,0.00,,,0.00,Wunderground v.1.15,2013-07-09 03:49:00,
2013-07-08 22:54:00,74.8,67.5,29.99,N/A,-737280,0.0,-999.0,78,0.00,,,0.00,Wunderground v.1.15,2013-07-09 03:54:00,
2013-07-08 22:59:00,74.7,67.4,30.00,N/A,-737280,0.0,-999.0,78,0.00,,,0.00,Wunderground v.1.15,2013-07-09 03:59:00,
2013-07-08 23:04:00,74.7,67.4,30.00,N/A,-737280,0.0,-999.0,78,0.00,,,0.00,Wunderground v.1.15,2013-07-09 04:04:00,
2013-07-08 23:09:00,74.7,67.8,30.00,N/A,-737280,0.0,-999.0,79,0.00,,,0.00,Wunderground v.1.15,2013-07-09 04:09:00,
2013-07-08 23:14:00,74.7,67.8,30.00,N/A,-737280,0.0,-999.0,79,0.00,,,0.00,Wunderground v.1.15,2013-07-09 04:14:00,
2013-07-08 23:19:00,74.6,67.3,30.00,N/A,-737280,0.0,-999.0,78,0.00,,,0.00,Wunderground v.1.15,2013-07-09 04:19:00,
2013-07-08 23:24:00,74.6,67.3,30.00,N/A,-737280,0.0,-999.0,78,0.00,,,0.00,Wunderground v.1.15,2013-07-09 04:24:00,
2013-07-08 23:29:00,74.6,67.7,29.99,N/A,-737280,0.0,-999.0,79,0.00,,,0.00,Wunderground v.1.15,2013-07-09 04:29:00,
2013-07-08 23:34:00,74.6,67.7,29.99,N/A,-737280,0.0,-999.0,79,0.00,,,0.00,Wunderground v.1.15,2013-07-09 04:34:00,
2013-07-08 23:39:00,74.5,67.6,29.99,N/A,-737280,0.0,-999.0,79,0.00,,,0.00,Wunderground v.1.15,2013-07-09 04:39:00,
2013-07-08 23:44:00,74.3,67.4,29.99,SSW,203,0.0,-999.0,79,0.00,,,0.00,Wunderground v.1.15,2013-07-09 04:44:00,
2013-07-08 23:49:00,74.2,67.3,29.99,N/A,-737280,0.0,-999.0,79,0.00,,,0.00,Wunderground v.1.15,2013-07-09 04:49:00,
2013-07-08 23:54:00,74.2,67.6,29.99,N/A,-737280,0.0,-999.0,80,0.00,,,0.00,Wunderground v.1.15,2013-07-09 04:54:00,
2013-07-08 23:59:00,74.1,67.5,29.99,N/A,-737280,0.0,-999.0,80,0.00,,,0.00,Wunderground v.1.15,2013-07-09 04:59:00,